Tracking 29591 objects as of 19-Sep-2024
HD Live streaming from Space Station
objects crossing your sky now

STARLINK-3861

Track STARLINK-3861 now!
10-day predictions
STARLINK-3861 is classified as:


NORAD ID: 52503
Int'l Code: 2022-049BE
Perigee: 546.0 km
Apogee: 547.8 km
Inclination: 53.2 °
Period: 95.4 minutes
Semi major axis: 6917 km
RCS: Unknown
Launch date: May 6, 2022
Source: United States (US)
Launch site: AIR FORCE EASTERN TEST RANGE (AFETR)
Your satellite tracking list
Your tracking list is empty




NASA's NSSDC Master Catalog

Two Line Element Set (TLE):
1 52503U 22049BE  24262.50034035 -.00004706  00000-0 -27784-3 0  9998
2 52503  53.2158 290.5390 0001347  93.7353 266.3794 15.08829727131432
Source of the keplerian elements: AFSPC